Weather in Toledo

United States     41°39′23″N   83°35′10″W
temp.,
°C
wind,
m/s
gust,
m/s
humid.,
%
clouds,
%
prec.,
mm/h
press.,
hPa
HPBL,
m
26 may, thu
thu2623:00+18sse51196100 1.8 1014307
02:00+19sse61394100 3.5 1013381
05:00+19ssw61394100 0.6 1013600
08:00+19s71491100 0.9 1013683
11:00+20s71187100 0.3 1013567
14:00+20ssw61088100 0.6 1012511
17:00+22ssw5974100 1.3 1009915
20:00+19ssw61094100 5.8 1009397
27 may, fri
fri2723:00+18ssw2496100 3.0 1008139
02:00+17sse3796100 3.4 1007216
05:00+17ssw3793100 1.0 1006235
08:00+17ssw599235 1.1 1007397
11:00+19sw577446 0.3 1007744
14:00+22ssw575766 0.4 10061285
17:00+20w346495 0.3 1006663
20:00+19wnw117177 0.4 100652
28 may, sat
sat2823:00+16n238572 0.6 100748
02:00+15n489455 1.1 1007383
05:00+15nnw479499 0.0 1009459
08:00+15n368896 0.0 1011468
11:00+16ne227725 0.0 1012495
14:00+18e226677 0.1 1012808
17:00+21sw135875 0.0 10111058
20:00+20nw12675 0.0 1012252
29 may, sun
sun2923:00+17sse357684 0.0 101293
02:00+16ssw478548 0.0 1013169
05:00+15ssw488698 0.0 1014210
08:00+16ssw4982100 0.0 1015301
11:00+21ssw586641 0.0 1014640
14:00+23ssw685991 0.6 1013840
17:00+25ssw71056100 0.0 1011929
20:00+23s61172100 0.3 1011399
30 may, mon
mon3023:00+21s5128099 0.0 1012345
02:00+21ssw51279100 0.0 1013368
05:00+21ssw5137989 0.0 1014330
08:00+21sw6137784 0.0 1016387
11:00+26sw8126275 0.0 1016605
14:00+29wsw811535 0.0 1015783
17:00+29wsw695466 0.0 1016848
20:00+27wsw58655 0.0 1016303